QPF
0.02 0.03 0.01 0.01 0.01 0.01 0.01 0.02 0.05 0.09 0.11 0.17 0.27 0.35 0.38 0.40 0.37 0.31 0.26 0.20 0.15 0.11 0.08 0.05 0.04 0.04 0.03 0.03 0.03 0.03 0.04 0.04 0.03 0.03 0.02 0.02 0.01 0.01 0.01 0.00 0.00 0.00 0.00 0.00
0.02 0.02 0.03 0.03 0.03 0.03 0.05 0.09 0.13 0.16 0.18 0.24 0.28 0.31 0.36 0.40 0.36 0.32 0.27 0.23 0.21 0.18 0.13 0.11 0.09 0.08 0.07 0.06 0.05 0.04 0.03 0.03 0.02 0.02 0.01 0.01 0.01 0.01 0.00 0.00 0.00 0.00 0.00 0.00
0.01 0.02 0.05 0.10 0.11 0.13 0.15 0.16 0.16 0.18 0.21 0.25 0.23 0.19 0.22 0.26 0.28 0.29 0.27 0.26 0.26 0.25 0.23 0.20 0.17 0.14 0.12 0.09 0.07 0.05 0.05 0.04 0.03 0.03 0.02 0.02 0.01 0.01 0.00 0.00 0.00 0.00 0.00 0.00
0.01 0.02 0.06 0.08 0.07 0.11 0.14 0.14 0.15 0.13 0.16 0.17 0.15 0.13 0.15 0.18 0.19 0.22 0.26 0.29 0.32 0.30 0.26 0.23 0.19 0.15 0.12 0.09 0.07 0.06 0.05 0.03 0.02 0.02 0.01 0.01 0.01 0.00 0.00 0.00 0.00 0.00 0.00 0.00
0.01 0.04 0.09 0.08 0.05 0.04 0.07 0.08 0.10 0.10 0.10 0.09 0.07 0.08 0.10 0.12 0.11 0.11 0.12 0.14 0.15 0.14 0.12 0.10 0.09 0.06 0.05 0.04 0.03 0.02 0.01 0.01 0.01 0.01 0.01 0.01 0.01 0.01 0.00 0.00 0.00 0.00 0.00 0.00
0.01 0.03 0.06 0.06 0.04 0.02 0.04 0.07 0.10 0.09 0.08 0.09 0.07 0.04 0.04 0.04 0.04 0.05 0.06 0.06 0.06 0.06 0.05 0.04 0.04 0.03 0.02 0.02 0.01 0.01 0.01 0.00 0.00 0.00 0.00 0.00 0.00 0.00 0.00 0.00 0.00 0.00 0.00 0.00
0.02 0.04 0.05 0.03 0.02 0.02 0.03 0.05 0.08 0.08 0.08 0.07 0.05 0.03 0.01 0.02 0.02 0.02 0.03 0.03 0.03 0.03 0.03 0.02 0.02 0.02 0.01 0.01 0.01 0.01 0.00 0.00 0.00 0.00 0.00 0.00 0.00 0.00 0.00 0.00 0.00 0.00 0.00 0.00
0.02 0.03 0.03 0.01 0.01 0.01 0.02 0.03 0.03 0.03 0.04 0.04 0.04 0.03 0.03 0.03 0.02 0.02 0.02 0.02 0.02 0.01 0.01 0.01 0.01 0.01 0.01 0.01 0.01 0.01 0.01 0.01 0.01 0.01 0.01 0.01 0.01 0.01 0.00 0.00 0.00 0.00 0.00 0.00
0.01 0.02 0.02 0.01 0.01 0.01 0.01 0.01 0.01 0.01 0.01 0.01 0.01 0.01 0.01 0.01 0.01 0.02 0.01 0.01 0.01 0.01 0.01 0.01 0.00 0.01 0.01 0.01 0.01 0.01 0.01 0.00 0.00 0.00 0.00 0.00 0.00 0.00 0.00 0.00 0.00 0.00 0.00 0.00
0.01 0.03 0.02 0.01 0.01 0.01 0.01 0.00 0.01 0.01 0.01 0.01 0.00 0.00 0.00 0.00 0.00 0.01 0.01 0.01 0.00 0.00 0.00 0.00 0.00 0.01 0.01 0.01 0.01 0.01 0.01 0.01 0.00 0.00 0.00 0.01 0.00 0.00 0.00 0.00 0.00 0.00 0.00 0.00
0.01 0.02 0.02 0.01 0.00 0.00 0.01 0.01 0.01 0.01 0.03 0.03 0.01 0.01 0.01 0.00 0.00 0.01 0.01 0.00 0.00 0.00 0.00 0.00 0.01 0.01 0.01 0.00 0.01 0.01 0.01 0.01 0.01 0.01 0.00 0.01 0.01 0.01 0.00 0.00 0.00 0.00 0.00 0.00
0.01 0.01 0.01 0.01 0.00 0.00 0.01 0.01 0.01 0.02 0.03 0.02 0.01 0.01 0.01 0.01 0.00 0.01 0.00 0.00 0.00 0.00 0.00 0.00 0.00 0.00 0.00 0.00 0.00 0.01 0.01 0.01 0.01 0.01 0.01 0.02 0.02 0.02 0.01 0.01 0.00 0.00 0.00 0.00
0.00 0.00 0.00 0.00 0.00 0.00 0.01 0.01 0.02 0.02 0.02 0.01 0.01 0.01 0.01 0.00 0.01 0.00 0.00 0.00 0.00 0.00 0.00 0.00 0.00 0.00 0.00 0.00 0.00 0.00 0.00 0.00 0.00 0.01 0.01 0.02 0.02 0.03 0.02 0.01 0.00 0.00 0.00 0.00
0.00 0.00 0.00 0.00 0.01 0.01 0.01 0.01 0.01 0.02 0.01 0.01 0.01 0.00 0.00 0.00 0.00 0.00 0.00 0.00 0.00 0.00 0.00 0.00 0.00 0.00 0.00 0.00 0.00 0.00 0.00 0.00 0.00 0.01 0.01 0.01 0.02 0.02 0.01 0.01 0.00 0.00 0.00 0.00
0.00 0.00 0.00 0.00 0.00 0.01 0.01 0.01 0.01 0.02 0.01 0.01 0.01 0.01 0.00 0.00 0.00 0.00 0.00 0.00 0.00 0.00 0.00 0.00 0.00 0.00 0.00 0.00 0.00 0.00 0.00 0.00 0.00 0.00 0.01 0.01 0.01 0.01 0.01 0.00 0.00 0.00 0.00 0.00
0.00 0.00 0.00 0.00 0.00 0.00 0.00 0.01 0.01 0.02 0.01 0.01 0.01 0.00 0.00 0.00 0.00 0.00 0.00 0.00 0.00 0.00 0.00 0.00 0.00 0.00 0.00 0.00 0.00 0.00 0.00 0.00 0.00 0.00 0.00 0.00 0.00 0.00 0.00 0.00 0.00 0.00 0.00 0.00
0.00 0.00 0.00 0.00 0.00 0.00 0.00 0.00 0.01 0.01 0.01 0.00 0.00 0.00 0.00 0.00 0.00 0.00 0.00 0.00 0.00 0.00 0.00 0.00 0.00 0.00 0.00 0.00 0.00 0.00 0.00 0.00 0.00 0.00 0.00 0.00 0.00 0.00 0.00 0.00 0.00 0.00 0.00 0.00
0.00 0.00 0.00 0.00 0.00 0.00 0.00 0.01 0.01 0.00 0.00 0.00 0.00 0.00 0.00 0.00 0.00 0.00 0.00 0.00 0.00 0.00 0.00 0.00 0.00 0.00 0.00 0.00 0.00 0.00 0.00 0.00 0.00 0.00 0.00 0.00 0.00 0.00 0.00 0.00 0.00 0.00 0.00 0.00
0.00 0.00 0.00 0.00 0.00 0.00 0.00 0.00 0.00 0.00 0.00 0.00 0.00 0.00 0.00 0.00 0.00 0.00 0.00 0.00 0.00 0.00 0.00 0.00 0.00 0.00 0.00 0.00 0.00 0.00 0.00 0.00 0.00 0.00 0.00 0.00 0.00 0.00 0.00 0.00 0.00 0.00 0.00 0.00
0.00 0.00 0.00 0.00 0.00 0.00 0.00 0.00 0.00 0.00 0.00 0.00 0.00 0.00 0.00 0.00 0.00 0.00 0.00 0.00 0.00 0.00 0.00 0.00 0.00 0.00 0.00 0.00 0.00 0.00 0.00 0.00 0.00 0.00 0.00 0.00 0.00 0.00 0.00 0.00 0.00 0.00 0.00 0.00
0.00 0.00 0.00 0.00 0.00 0.00 0.00 0.00 0.00 0.00 0.00 0.00 0.00 0.00 0.00 0.00 0.00 0.00 0.00 0.00 0.00 0.00 0.00 0.00 0.00 0.00 0.00 0.00 0.00 0.00 0.00 0.00 0.00 0.00 0.00 0.00 0.00 0.00 0.00 0.00 0.00 0.00 0.00 0.00
0.00 0.00 0.00 0.00 0.00 0.00 0.00 0.00 0.00 0.00 0.00 0.00 0.00 0.00 0.00 0.00 0.00 0.00 0.00 0.00 0.00 0.00 0.00 0.00 0.00 0.00 0.00 0.00 0.00 0.00 0.00 0.00 0.00 0.00 0.00 0.00 0.00 0.00 0.00 0.00 0.00 0.00 0.00 0.00
0.00 0.00 0.00 0.00 0.00 0.00 0.00 0.00 0.00 0.00 0.00 0.00 0.00 0.00 0.00 0.00 0.00 0.00 0.00 0.00 0.00 0.00 0.00 0.00 0.00 0.00 0.00 0.00 0.00 0.00 0.00 0.00 0.00 0.00 0.00 0.00 0.00 0.00 0.00 0.00 0.00 0.00 0.00 0.00
0.00 0.00 0.00 0.00 0.00 0.00 0.00 0.00 0.00 0.00 0.00 0.00 0.00 0.00 0.00 0.00 0.00 0.00 0.00 0.00 0.00 0.00 0.00 0.00 0.00 0.00 0.00 0.00 0.00 0.00 0.00 0.00 0.00 0.00 0.00 0.00 0.00 0.00 0.00 0.00 0.00 0.00 0.00 0.00
0.00 0.00 0.00 0.00 0.00 0.00 0.00 0.00 0.00 0.00 0.00 0.00 0.00 0.00 0.00 0.00 0.00 0.00 0.00 0.00 0.00 0.00 0.00 0.00 0.00 0.00 0.00 0.00 0.00 0.00 0.00 0.00 0.00 0.00 0.00 0.00 0.00 0.00 0.00 0.00 0.00 0.00 0.00 0.00
0.00 0.00 0.00 0.00 0.00 0.00 0.00 0.00 0.00 0.00 0.00 0.00 0.00 0.00 0.00 0.00 0.00 0.00 0.00 0.00 0.00 0.00 0.00 0.00 0.00 0.00 0.00 0.00 0.00 0.00 0.00 0.00 0.00 0.00 0.00 0.00 0.00 0.00 0.00 0.00 0.00 0.00 0.00 0.00
0.00 0.00 0.00 0.00 0.00 0.00 0.00 0.00 0.00 0.00 0.00 0.00 0.00 0.00 0.00 0.00 0.00 0.00 0.00 0.00 0.00 0.00 0.00 0.00 0.00 0.00 0.00 0.00 0.00 0.00 0.00 0.00 0.00 0.00 0.00 0.00 0.00 0.00 0.00 0.00 0.00 0.00 0.00 0.00
MSLP
1013.64 1014.13 1014.58 1014.96 1015.24 1015.43 1015.54 1015.60 1015.64 1015.70 1015.83 1016.03 1016.31 1016.67 1017.07 1017.48 1017.88 1018.22 1018.48 1018.68 1018.82 1018.92 1019.02 1019.16 1019.35 1019.62 1019.96 1020.36 1020.80 1021.25 1021.69 1022.10 1022.47 1022.81 1023.11 1023.41 1023.71 1024.03 1024.37 1024.71 1025.05 1025.36 1025.61 1025.80
1014.48 1014.97 1015.39 1015.69 1015.88 1015.96 1015.98 1015.97 1015.98 1016.05 1016.21 1016.47 1016.84 1017.27 1017.75 1018.22 1018.64 1018.99 1019.27 1019.46 1019.59 1019.69 1019.80 1019.95 1020.16 1020.44 1020.79 1021.19 1021.62 1022.05 1022.46 1022.83 1023.16 1023.45 1023.72 1023.99 1024.27 1024.56 1024.87 1025.19 1025.50 1025.77 1025.99 1026.14
1015.18 1015.65 1016.01 1016.23 1016.34 1016.34 1016.30 1016.26 1016.28 1016.39 1016.62 1016.97 1017.42 1017.94 1018.49 1019.01 1019.46 1019.83 1020.10 1020.29 1020.41 1020.51 1020.62 1020.77 1020.99 1021.27 1021.62 1022.02 1022.42 1022.82 1023.18 1023.50 1023.78 1024.03 1024.26 1024.48 1024.72 1024.97 1025.24 1025.51 1025.77 1025.99 1026.17 1026.27
1015.76 1016.16 1016.44 1016.59 1016.62 1016.59 1016.53 1016.50 1016.56 1016.74 1017.05 1017.50 1018.05 1018.65 1019.26 1019.83 1020.31 1020.69 1020.96 1021.14 1021.26 1021.35 1021.46 1021.62 1021.84 1022.12 1022.45 1022.82 1023.20 1023.55 1023.86 1024.13 1024.36 1024.54 1024.72 1024.89 1025.07 1025.27 1025.49 1025.70 1025.90 1026.07 1026.19 1026.26
1016.21 1016.53 1016.72 1016.80 1016.79 1016.73 1016.68 1016.70 1016.82 1017.09 1017.50 1018.04 1018.68 1019.36 1020.03 1020.63 1021.14 1021.52 1021.79 1021.97 1022.08 1022.18 1022.29 1022.45 1022.66 1022.94 1023.26 1023.59 1023.93 1024.23 1024.50 1024.70 1024.87 1025.00 1025.12 1025.24 1025.37 1025.51 1025.66 1025.82 1025.96 1026.07 1026.14 1026.17
1016.57 1016.79 1016.91 1016.93 1016.89 1016.83 1016.81 1016.89 1017.10 1017.46 1017.97 1018.60 1019.32 1020.05 1020.76 1021.38 1021.89 1022.28 1022.55 1022.72 1022.83 1022.93 1023.05 1023.21 1023.42 1023.68 1023.98 1024.29 1024.58 1024.84 1025.05 1025.20 1025.32 1025.40 1025.47 1025.54 1025.62 1025.71 1025.82 1025.92 1026.02 1026.08 1026.11 1026.10
1016.86 1016.99 1017.04 1017.02 1016.97 1016.93 1016.97 1017.12 1017.41 1017.86 1018.46 1019.16 1019.93 1020.70 1021.42 1022.05 1022.55 1022.93 1023.18 1023.35 1023.46 1023.56 1023.68 1023.84 1024.05 1024.30 1024.57 1024.85 1025.10 1025.32 1025.48 1025.59 1025.67 1025.71 1025.75 1025.79 1025.84 1025.91 1025.98 1026.06 1026.11 1026.15 1026.14 1026.10
1017.08 1017.15 1017.15 1017.11 1017.06 1017.07 1017.17 1017.39 1017.77 1018.30 1018.95 1019.71 1020.50 1021.29 1022.00 1022.61 1023.09 1023.45 1023.68 1023.84 1023.94 1024.04 1024.15 1024.31 1024.50 1024.74 1024.99 1025.24 1025.46 1025.63 1025.77 1025.85 1025.90 1025.93 1025.96 1025.99 1026.04 1026.10 1026.17 1026.23 1026.27 1026.29 1026.26 1026.20
1017.24 1017.27 1017.25 1017.21 1017.20 1017.25 1017.41 1017.71 1018.16 1018.74 1019.45 1020.22 1021.02 1021.79 1022.48 1023.06 1023.50 1023.82 1024.04 1024.17 1024.26 1024.35 1024.46 1024.60 1024.78 1024.99 1025.22 1025.43 1025.62 1025.78 1025.88 1025.96 1026.00 1026.03 1026.07 1026.12 1026.19 1026.27 1026.35 1026.42 1026.47 1026.48 1026.45 1026.37
1017.34 1017.35 1017.34 1017.33 1017.36 1017.47 1017.70 1018.06 1018.56 1019.18 1019.90 1020.68 1021.46 1022.20 1022.85 1023.38 1023.79 1024.07 1024.25 1024.36 1024.44 1024.51 1024.60 1024.73 1024.88 1025.07 1025.26 1025.45 1025.61 1025.74 1025.84 1025.91 1025.97 1026.02 1026.08 1026.16 1026.26 1026.38 1026.49 1026.59 1026.66 1026.68 1026.65 1026.56
1017.37 1017.41 1017.42 1017.46 1017.55 1017.72 1018.00 1018.41 1018.95 1019.59 1020.31 1021.07 1021.82 1022.51 1023.11 1023.60 1023.96 1024.21 1024.36 1024.45 1024.51 1024.56 1024.63 1024.73 1024.86 1025.01 1025.17 1025.33 1025.46 1025.58 1025.67 1025.74 1025.81 1025.89 1025.99 1026.11 1026.25 1026.41 1026.56 1026.69 1026.78 1026.82 1026.79 1026.70
1017.36 1017.43 1017.51 1017.60 1017.75 1017.98 1018.31 1018.76 1019.31 1019.95 1020.66 1021.38 1022.09 1022.73 1023.28 1023.73 1024.05 1024.27 1024.40 1024.47 1024.51 1024.54 1024.59 1024.66 1024.76 1024.88 1025.00 1025.12 1025.23 1025.33 1025.41 1025.49 1025.58 1025.68 1025.81 1025.97 1026.15 1026.34 1026.53 1026.69 1026.81 1026.86 1026.84 1026.74
1017.32 1017.46 1017.59 1017.76 1017.97 1018.26 1018.63 1019.09 1019.65 1020.27 1020.94 1021.63 1022.28 1022.88 1023.39 1023.80 1024.10 1024.30 1024.42 1024.48 1024.51 1024.53 1024.55 1024.59 1024.66 1024.73 1024.82 1024.90 1024.98 1025.06 1025.13 1025.21 1025.31 1025.43 1025.58 1025.77 1025.98 1026.20 1026.41 1026.60 1026.73 1026.80 1026.78 1026.68
1017.27 1017.49 1017.71 1017.94 1018.22 1018.55 1018.95 1019.42 1019.96 1020.56 1021.19 1021.83 1022.44 1022.99 1023.46 1023.85 1024.13 1024.33 1024.44 1024.50 1024.53 1024.54 1024.55 1024.56 1024.59 1024.63 1024.67 1024.72 1024.77 1024.82 1024.88 1024.96 1025.06 1025.19 1025.35 1025.55 1025.78 1026.01 1026.23 1026.43 1026.57 1026.65 1026.64 1026.55
1017.26 1017.55 1017.86 1018.17 1018.50 1018.87 1019.29 1019.76 1020.28 1020.84 1021.42 1022.01 1022.58 1023.09 1023.54 1023.90 1024.18 1024.38 1024.51 1024.58 1024.60 1024.61 1024.60 1024.59 1024.59 1024.59 1024.60 1024.61 1024.63 1024.66 1024.70 1024.77 1024.87 1025.00 1025.17 1025.37 1025.59 1025.82 1026.05 1026.24 1026.39 1026.47 1026.47 1026.39
1017.27 1017.66 1018.04 1018.42 1018.81 1019.21 1019.64 1020.10 1020.59 1021.12 1021.66 1022.19 1022.72 1023.20 1023.63 1023.99 1024.27 1024.48 1024.62 1024.70 1024.74 1024.74 1024.72 1024.69 1024.66 1024.62 1024.60 1024.58 1024.58 1024.58 1024.62 1024.67 1024.76 1024.89 1025.05 1025.25 1025.46 1025.68 1025.90 1026.08 1026.23 1026.31 1026.32 1026.26
1017.32 1017.79 1018.25 1018.70 1019.14 1019.57 1020.00 1020.45 1020.91 1021.39 1021.89 1022.38 1022.87 1023.33 1023.74 1024.10 1024.39 1024.61 1024.77 1024.87 1024.91 1024.91 1024.88 1024.84 1024.78 1024.72 1024.67 1024.62 1024.60 1024.59 1024.61 1024.66 1024.75 1024.87 1025.02 1025.21 1025.41 1025.62 1025.82 1026.00 1026.14 1026.23 1026.25 1026.21
1017.39 1017.94 1018.47 1018.98 1019.45 1019.91 1020.35 1020.78 1021.22 1021.66 1022.12 1022.58 1023.03 1023.46 1023.86 1024.22 1024.52 1024.76 1024.94 1025.05 1025.10 1025.10 1025.07 1025.01 1024.93 1024.85 1024.78 1024.71 1024.67 1024.66 1024.67 1024.72 1024.81 1024.93 1025.08 1025.26 1025.45 1025.64 1025.83 1026.00 1026.14 1026.23 1026.27 1026.25
1017.45 1018.07 1018.66 1019.22 1019.73 1020.20 1020.64 1021.06 1021.48 1021.89 1022.31 1022.74 1023.17 1023.59 1023.98 1024.34 1024.65 1024.91 1025.10 1025.22 1025.28 1025.28 1025.24 1025.17 1025.08 1024.98 1024.90 1024.82 1024.78 1024.76 1024.78 1024.83 1024.92 1025.05 1025.20 1025.37 1025.56 1025.75 1025.93 1026.09 1026.22 1026.32 1026.37 1026.37
1017.50 1018.17 1018.82 1019.41 1019.94 1020.43 1020.87 1021.28 1021.67 1022.06 1022.46 1022.86 1023.27 1023.68 1024.07 1024.43 1024.75 1025.01 1025.21 1025.34 1025.41 1025.42 1025.38 1025.30 1025.20 1025.10 1025.00 1024.93 1024.88 1024.87 1024.90 1024.97 1025.07 1025.20 1025.36 1025.54 1025.72 1025.90 1026.08 1026.23 1026.36 1026.46 1026.52 1026.54
1017.53 1018.24 1018.91 1019.53 1020.08 1020.57 1021.01 1021.41 1021.78 1022.16 1022.53 1022.92 1023.31 1023.71 1024.10 1024.47 1024.79 1025.06 1025.27 1025.41 1025.49 1025.50 1025.46 1025.38 1025.28 1025.18 1025.08 1025.01 1024.98 1024.98 1025.02 1025.10 1025.22 1025.37 1025.53 1025.71 1025.90 1026.08 1026.25 1026.40 1026.53 1026.63 1026.70 1026.72
1017.55 1018.29 1018.97 1019.60 1020.15 1020.64 1021.07 1021.46 1021.82 1022.18 1022.54 1022.91 1023.30 1023.69 1024.08 1024.44 1024.77 1025.05 1025.26 1025.41 1025.49 1025.51 1025.47 1025.40 1025.31 1025.22 1025.13 1025.08 1025.06 1025.08 1025.14 1025.24 1025.37 1025.53 1025.71 1025.89 1026.08 1026.26 1026.43 1026.58 1026.70 1026.80 1026.87 1026.91
1017.58 1018.32 1019.01 1019.62 1020.17 1020.65 1021.06 1021.44 1021.79 1022.14 1022.49 1022.85 1023.22 1023.61 1023.99 1024.35 1024.68 1024.96 1025.18 1025.34 1025.42 1025.45 1025.43 1025.37 1025.30 1025.22 1025.16 1025.13 1025.13 1025.17 1025.25 1025.37 1025.52 1025.69 1025.88 1026.07 1026.26 1026.44 1026.60 1026.75 1026.87 1026.97 1027.05 1027.09
1017.63 1018.36 1019.03 1019.63 1020.16 1020.62 1021.02 1021.38 1021.72 1022.05 1022.39 1022.74 1023.11 1023.48 1023.85 1024.20 1024.53 1024.80 1025.03 1025.19 1025.29 1025.33 1025.33 1025.30 1025.25 1025.20 1025.17 1025.16 1025.19 1025.26 1025.37 1025.51 1025.67 1025.86 1026.05 1026.24 1026.43 1026.61 1026.77 1026.91 1027.04 1027.14 1027.22 1027.28
1017.69 1018.40 1019.04 1019.62 1020.13 1020.56 1020.95 1021.30 1021.62 1021.94 1022.26 1022.60 1022.95 1023.30 1023.66 1024.00 1024.31 1024.59 1024.81 1024.98 1025.10 1025.16 1025.19 1025.19 1025.18 1025.17 1025.17 1025.20 1025.27 1025.37 1025.50 1025.66 1025.84 1026.03 1026.22 1026.42 1026.61 1026.78 1026.94 1027.09 1027.21 1027.32 1027.42 1027.49
1017.74 1018.42 1019.03 1019.58 1020.06 1020.48 1020.85 1021.18 1021.49 1021.80 1022.11 1022.43 1022.76 1023.10 1023.43 1023.75 1024.05 1024.32 1024.54 1024.72 1024.85 1024.94 1025.00 1025.05 1025.08 1025.12 1025.17 1025.25 1025.35 1025.48 1025.64 1025.82 1026.01 1026.21 1026.41 1026.60 1026.79 1026.96 1027.12 1027.26 1027.40 1027.52 1027.63 1027.73
1017.74 1018.38 1018.97 1019.49 1019.94 1020.34 1020.70 1021.02 1021.32 1021.62 1021.92 1022.22 1022.53 1022.85 1023.16 1023.47 1023.75 1024.01 1024.23 1024.42 1024.57 1024.69 1024.79 1024.88 1024.97 1025.06 1025.16 1025.29 1025.43 1025.60 1025.78 1025.98 1026.18 1026.39 1026.59 1026.78 1026.96 1027.13 1027.29 1027.44 1027.59 1027.73 1027.86 1027.98
Thickness
5639 5644 5645 5642 5642 5645 5642 5639 5634 5635 5634 5631 5630 5629 5626 5624 5620 5618 5614 5612 5610 5608 5606 5605 5603 5601 5599 5596 5592 5589 5586 5581 5576 5571 5566 5561 5556 5550 5546 5541 5535 5529 5523 5517
5630 5636 5635 5629 5631 5634 5634 5634 5631 5629 5622 5621 5619 5619 5615 5613 5609 5605 5602 5599 5595 5593 5591 5589 5587 5585 5583 5579 5575 5572 5569 5564 5559 5554 5549 5544 5539 5534 5529 5523 5517 5511 5506 5500
5614 5624 5624 5608 5612 5618 5618 5620 5622 5616 5612 5610 5607 5604 5601 5599 5596 5592 5588 5585 5582 5579 5576 5574 5571 5569 5566 5562 5559 5556 5551 5546 5541 5536 5531 5527 5522 5517 5511 5505 5500 5494 5488 5484
5606 5608 5592 5598 5612 5613 5609 5606 5608 5605 5601 5597 5593 5590 5587 5585 5583 5579 5575 5571 5568 5565 5562 5558 5556 5553 5550 5547 5543 5538 5534 5529 5525 5520 5514 5509 5504 5499 5494 5489 5484 5478 5473 5467
5596 5593 5590 5599 5606 5606 5600 5592 5594 5592 5588 5585 5581 5579 5573 5570 5568 5565 5561 5558 5554 5552 5549 5546 5542 5539 5536 5532 5528 5524 5519 5513 5508 5503 5498 5494 5488 5483 5478 5473 5468 5463 5458 5453
5596 5589 5581 5589 5604 5609 5598 5581 5586 5585 5581 5578 5578 5569 5561 5558 5556 5552 5549 5545 5542 5539 5537 5534 5530 5527 5523 5518 5514 5509 5505 5500 5495 5490 5484 5479 5474 5469 5464 5459 5454 5449 5444 5439
5588 5581 5582 5594 5602 5602 5582 5575 5580 5578 5575 5572 5568 5561 5554 5549 5545 5541 5538 5534 5531 5528 5525 5522 5519 5515 5510 5506 5501 5497 5493 5488 5483 5477 5471 5465 5460 5455 5450 5446 5440 5435 5430 5426
5581 5572 5573 5592 5593 5583 5575 5576 5574 5570 5566 5561 5556 5550 5545 5540 5535 5531 5528 5525 5521 5518 5514 5511 5508 5504 5498 5494 5490 5486 5481 5476 5470 5465 5460 5454 5448 5442 5437 5431 5425 5420 5416 5412
5580 5574 5580 5585 5582 5580 5576 5570 5566 5561 5557 5554 5548 5542 5536 5531 5526 5522 5519 5515 5512 5508 5504 5501 5498 5494 5488 5484 5481 5477 5471 5465 5460 5454 5449 5443 5437 5432 5425 5419 5414 5408 5403 5399
5579 5577 5578 5578 5577 5574 5571 5567 5562 5557 5552 5547 5541 5535 5529 5523 5518 5514 5511 5507 5503 5499 5495 5491 5489 5485 5481 5477 5473 5467 5462 5456 5451 5445 5440 5434 5428 5423 5417 5411 5405 5400 5395 5390
5576 5576 5574 5572 5571 5569 5566 5562 5557 5552 5546 5541 5535 5527 5522 5516 5512 5508 5504 5500 5496 5492 5488 5485 5482 5478 5475 5470 5466 5460 5455 5449 5443 5438 5433 5427 5421 5416 5411 5406 5402 5396 5391 5387
5576 5578 5571 5567 5568 5567 5562 5557 5553 5547 5540 5534 5529 5522 5516 5510 5506 5502 5498 5494 5490 5486 5483 5479 5476 5472 5469 5465 5461 5455 5449 5444 5438 5434 5429 5423 5417 5411 5407 5403 5399 5395 5391 5387
5586 5581 5574 5570 5567 5564 5559 5554 5550 5544 5537 5529 5523 5518 5512 5506 5502 5498 5495 5490 5486 5482 5478 5475 5471 5468 5465 5462 5457 5452 5446 5441 5436 5432 5427 5422 5415 5409 5403 5399 5396 5394 5391 5388
5586 5579 5569 5565 5561 5559 5555 5550 5545 5538 5531 5525 5519 5513 5508 5504 5499 5495 5491 5487 5483 5479 5475 5471 5467 5464 5462 5459 5455 5450 5446 5441 5437 5432 5427 5422 5416 5411 5405 5400 5396 5393 5392 5391
5581 5576 5567 5561 5557 5553 5550 5545 5538 5531 5525 5520 5515 5510 5506 5500 5496 5492 5488 5484 5479 5475 5471 5468 5465 5462 5460 5457 5453 5449 5445 5440 5436 5432 5428 5423 5418 5413 5407 5403 5398 5395 5393 5393
5576 5570 5563 5558 5553 5548 5544 5539 5534 5527 5522 5517 5512 5507 5503 5498 5493 5489 5485 5481 5475 5470 5467 5465 5461 5459 5458 5455 5452 5448 5445 5442 5438 5432 5428 5423 5419 5414 5409 5405 5401 5398 5396 5396
5573 5564 5559 5553 5549 5544 5540 5536 5531 5526 5521 5515 5510 5506 5501 5496 5490 5485 5481 5478 5473 5469 5465 5462 5460 5458 5456 5453 5450 5447 5444 5441 5439 5433 5428 5424 5419 5415 5411 5407 5404 5401 5400 5400
5577 5568 5561 5554 5548 5542 5537 5533 5529 5524 5519 5515 5510 5504 5498 5492 5487 5483 5479 5475 5470 5466 5463 5461 5458 5456 5454 5451 5449 5446 5444 5440 5436 5432 5428 5424 5420 5417 5413 5410 5407 5405 5404 5404
5574 5566 5559 5553 5547 5541 5536 5531 5527 5522 5519 5514 5509 5502 5497 5492 5487 5483 5478 5473 5469 5464 5461 5459 5457 5454 5451 5449 5449 5447 5444 5440 5436 5432 5428 5426 5421 5418 5415 5412 5409 5407 5407 5406
5571 5564 5557 5550 5545 5540 5534 5530 5526 5521 5517 5513 5507 5501 5496 5492 5487 5482 5477 5471 5466 5463 5461 5457 5454 5450 5448 5448 5448 5446 5443 5440 5436 5432 5428 5424 5421 5418 5416 5414 5411 5410 5409 5409
5568 5561 5554 5548 5542 5538 5533 5529 5525 5520 5516 5512 5506 5501 5496 5492 5487 5481 5475 5470 5467 5465 5461 5457 5452 5448 5447 5447 5447 5445 5442 5438 5435 5431 5428 5424 5421 5418 5416 5414 5413 5411 5411 5410
5565 5558 5552 5546 5540 5535 5531 5527 5524 5520 5515 5511 5507 5502 5496 5491 5487 5481 5477 5472 5469 5466 5461 5457 5452 5450 5448 5447 5445 5443 5441 5438 5434 5431 5427 5424 5421 5418 5416 5414 5413 5412 5412 5412
5563 5556 5549 5544 5538 5533 5529 5526 5523 5519 5515 5511 5507 5502 5497 5492 5487 5482 5476 5473 5471 5468 5463 5458 5455 5452 5450 5447 5445 5443 5440 5437 5434 5431 5428 5424 5421 5419 5417 5415 5414 5413 5413 5413
5560 5553 5547 5541 5536 5531 5527 5524 5521 5518 5515 5512 5508 5505 5499 5493 5487 5485 5482 5479 5475 5470 5465 5461 5458 5454 5451 5448 5445 5443 5440 5438 5435 5431 5428 5425 5422 5420 5418 5416 5414 5414 5414 5414
5558 5551 5545 5539 5534 5529 5526 5522 5519 5516 5514 5510 5509 5506 5502 5498 5493 5488 5485 5481 5477 5473 5469 5465 5461 5457 5452 5449 5446 5443 5440 5438 5436 5432 5429 5426 5423 5420 5419 5417 5416 5415 5415 5414
5555 5549 5544 5539 5534 5529 5525 5522 5517 5514 5512 5509 5507 5505 5503 5500 5497 5492 5488 5484 5481 5476 5472 5469 5465 5460 5455 5451 5447 5444 5441 5439 5436 5433 5430 5427 5425 5422 5421 5419 5418 5417 5416 5415
5552 5547 5540 5536 5532 5529 5526 5522 5518 5515 5513 5511 5508 5506 5504 5502 5498 5495 5492 5488 5484 5481 5477 5474 5470 5465 5460 5455 5451 5448 5444 5441 5438 5435 5432 5430 5427 5426 5424 5422 5421 5420 5419 5418